[[{"header":{"parameterUnit":"m.s-1","parameterCategory":1,"la1":30.2991,"la2":30.254,"lo1":-89.0895,"lo2":-89.0444,"dy":0.0017,"dx":0.0017,"nx":28,"ny":28,"refTime":"2024-12-03T03:00:00:Z","depth":0,"parameterNumber":2,"parameterNumberName":"U-component_of_WINDS"},"data":[0,0,0,0,0,0,0,0,0,0,0,0,0,0,0,0,0,0,0,0,0,0,0,0,0,0,0,0,0,0,0,0,0,0,0,0,0,0,0,0,0,0,0,0,0,0,0,0,0,0,0,0,0,0,0,0,0,0,-0.1995,-0.1996,0,-0.2046,-0.2047,-0.2047,-0.203,-0.2029,-0.2028,-0.2027,-0.208,-0.2082,-0.2085,0,0,0,0,0,0,0,0,0,0,0,0,0,-0.1883,-0.1885,-0.1995,-0.1996,-0.1997,-0.2046,-0.2047,-0.2047,-0.203,-0.2029,-0.2027,-0.2026,-0.2079,-0.2082,-0.2085,0,0,0,0,0,0,0,0,0,0,0,0,0,-0.1933,-0.1886,-0.1995,-0.1994,-0.1994,-0.2046,-0.2047,-0.2048,-0.203,-0.2029,-0.2027,-0.2025,-0.2078,-0.2082,-0.2085,-0.2142,0,0,-0.2096,-0.2098,0,0,0,0,0,0,0,0,-0.193,-0.1937,-0.1993,-0.1994,-0.1995,-0.203,-0.2027,-0.2079,-0.2031,-0.2017,-0.2027,-0.2025,-0.2065,-0.2069,-0.2083,-0.2144,-0.2146,-0.2097,-0.2099,-0.2101,-0.2102,0,0,0,0,0,0,0,-0.1926,-0.1934,-0.2015,-0.1994,-0.1995,-0.1991,-0.1996,-0.2037,-0.205,-0.2018,-0.2017,-0.2023,-0.2065,-0.2079,-0.2084,-0.2147,-0.2097,-0.21,-0.2102,-0.2104,-0.2256,-0.2258,0,0,0,0,0,0,-0.1923,-0.1932,-0.2014,-0.2017,-0.1957,-0.1994,-0.2,-0.202,-0.2049,-0.2052,-0.2024,-0.2022,-0.2074,-0.2079,-0.2085,-0.2153,-0.2101,-0.2104,-0.2106,-0.2254,-0.2256,-0.2258,0,0,0,0,0,0,-0.192,-0.193,-0.2012,-0.1974,-0.1984,-0.1998,-0.2021,-0.2022,-0.2037,-0.2054,-0.2056,-0.2037,-0.2072,-0.208,-0.2127,-0.2154,-0.2106,-0.2109,-0.2252,-0.2255,-0.2257,-0.2288,0,0,0,0,0,0,-0.1917,-0.1929,-0.1951,-0.1975,-0.1986,-0.2053,-0.2023,-0.2024,-0.2043,-0.204,-0.2066,-0.2069,-0.2072,-0.2122,-0.2131,-0.2158,-0.2112,-0.225,-0.2253,-0.2256,-0.2285,-0.2291,-0.2297,0,0,0,0,0,-0.1913,-0.1958,-0.1952,-0.1962,-0.2014,-0.2055,-0.2061,-0.2064,-0.2045,-0.2067,-0.2078,-0.2068,-0.215,-0.2127,-0.2137,-0.2166,-0.2248,-0.2252,-0.2256,-0.2282,-0.229,-0.2297,0,0,0,0,0,0,-0.1939,-0.1961,-0.1955,-0.2009,-0.203,-0.2052,-0.2079,-0.2072,-0.2099,-0.2096,-0.2098,-0.2104,-0.2152,-0.2163,-0.2138,-0.2221,-0.2196,-0.2202,-0.2212,-0.222,-0.2226,-0.2223,-0.2115,0,0,0,0,0,-0.195,-0.1981,-0.2,-0.2046,-0.2056,-0.2066,-0.2084,-0.2084,-0.2106,-0.2115,-0.2129,-0.2151,-0.2181,-0.2201,-0.223,-0.2286,-0.2291,-0.2311,-0.2317,-0.2322,-0.2328,-0.2357,-0.2365,-0.2272,-0.2272,-0.2272,0,0,-0.1975,-0.1991,-0.2011,-0.2051,-0.2067,-0.2099,-0.2074,-0.2109,-0.2133,-0.212,-0.2165,-0.2176,-0.22,-0.2252,-0.2275,-0.2263,-0.2354,-0.2327,-0.2331,-0.2334,-0.2362,-0.2371,-0.2379,-0.2275,-0.2274,-0.2274,0,0,-0.2037,-0.2053,-0.2092,-0.2108,-0.2133,-0.2138,-0.2148,-0.217,-0.2177,-0.2222,-0.2212,-0.224,-0.2293,-0.231,-0.2326,-0.2392,-0.2384,-0.2402,-0.2435,-0.2463,-0.2471,-0.2477,-0.25,-0.2509,-0.2407,-0.2407,-0.2407,0,-0.2065,-0.2113,-0.2113,-0.2149,-0.2167,-0.2155,-0.2195,-0.2211,-0.2244,-0.2256,-0.2241,-0.2306,-0.2322,-0.2376,-0.2392,-0.2406,-0.2416,-0.2399,-0.2469,-0.2476,-0.2482,-0.2504,-0.2513,-0.2409,-0.2409,-0.2409,-0.2408,0,-0.2146,-0.2179,-0.2208,-0.2239,-0.226,-0.2297,-0.2303,-0.2324,-0.2321,-0.2328,-0.2374,-0.2392,-0.2424,-0.2436,-0.2435,-0.249,-0.2482,-0.2469,-0.2443,-0.2493,-0.2514,-0.2522,-0.2412,-0.2411,-0.2411,-0.241,0,0,-0.2227,-0.2256,-0.2267,-0.228,-0.2305,-0.2331,-0.2367,-0.2398,-0.2415,-0.2438,-0.2468,-0.2512,-0.2499,-0.2517,-0.2517,-0.2541,-0.2592,-0.2525,-0.2525,-0.2536,-0.2653,-0.2663,-0.2673,-0.2586,-0.2588,-0.2589,-0.2651,0,-0.229,-0.2354,-0.2355,-0.2414,-0.2444,-0.2433,-0.2464,-0.2483,-0.249,-0.2517,-0.2524,-0.2555,-0.2536,-0.2547,-0.2571,-0.2581,-0.2615,-0.2576,-0.2614,-0.2616,-0.2609,-0.2684,-0.2695,-0.2754,-0.2659,-0.2661,-0.2662,0,-0.2374,-0.2398,-0.2459,-0.2479,-0.2491,-0.252,-0.2547,-0.2573,-0.2593,-0.2596,-0.2615,-0.2611,-0.2647,-0.262,-0.267,-0.2644,-0.2659,-0.2666,-0.2668,-0.2672,-0.2642,-0.269,-0.2772,-0.2781,-0.2675,-0.2674,-0.2673,0,-0.2426,-0.2474,-0.2517,-0.2528,-0.2552,-0.2572,-0.2583,-0.2601,-0.2619,-0.2643,-0.2654,-0.2682,-0.2697,-0.2719,-0.2722,-0.2702,-0.2772,-0.2745,-0.2775,-0.2775,-0.2791,-0.279,-0.2877,-0.2801,-0.2801,-0.2801,-0.28,0,-0.2497,-0.2535,-0.254,-0.2567,-0.2609,-0.2608,-0.265,-0.2659,-0.2675,-0.2703,-0.2694,-0.2721,-0.2723,-0.2749,-0.2752,-0.2792,-0.2799,-0.2803,-0.2803,-0.2804,-0.2803,-0.2814,-0.281,-0.2803,-0.2802,-0.2802,-0.2802,0,-0.2563,-0.2568,-0.2614,-0.2632,-0.2637,-0.2667,-0.2682,-0.2707,-0.2713,-0.2748,-0.2756,-0.2765,-0.2796,-0.28,-0.2837,-0.2838,-0.2887,-0.2883,-0.288,-0.2879,-0.2909,-0.2906,-0.3006,-0.3019,-0.2934,-0.2935,-0.2936,0,-0.2609,-0.2638,-0.2658,-0.2676,-0.2687,-0.2716,-0.2733,-0.2734,-0.2752,-0.2777,-0.2799,-0.2828,-0.2852,-0.2901,-0.2911,-0.2938,-0.2935,-0.2968,-0.2939,-0.2938,-0.2935,-0.2934,-0.2936,-0.2974,-0.2975,-0.2976,-0.2976,0,-0.2689,-0.2689,-0.2715,-0.2741,-0.2762,-0.2783,-0.2802,-0.2817,-0.282,-0.2841,-0.2872,-0.289,-0.2926,-0.2956,-0.2982,-0.2993,-0.2985,-0.2985,-0.2993,-0.2995,-0.2992,-0.2993,-0.2895,-0.2983,-0.2982,-0.2982,-0.2981,-0.2981,-0.2746,-0.277,-0.2788,-0.2817,-0.2831,-0.2849,-0.2873,-0.2881,-0.2906,-0.2935,-0.2934,-0.2968,-0.2986,-0.302,-0.3033,-0.3059,-0.3048,-0.3061,-0.3064,-0.3067,-0.307,-0.2987,-0.3064,-0.3064,-0.3064,-0.3063,-0.3063,0,-0.2825,-0.2835,-0.2861,-0.2888,-0.291,-0.29,-0.292,-0.294,-0.2969,-0.2987,-0.301,-0.3045,-0.3072,-0.3084,-0.3111,-0.3129,-0.3126,-0.3137,-0.3135,-0.3138,-0.3078,-0.3068,-0.3139,-0.3139,-0.3139,-0.3138,-0.3138,-0.3138,-0.2869,-0.291,-0.2912,-0.2959,-0.2969,-0.3002,-0.3015,-0.3031,-0.3044,-0.3083,-0.3106,-0.3113,-0.3128,-0.3155,-0.318,-0.3183,-0.3193,-0.3205,-0.3206,-0.315,-0.3142,-0.3135,-0.3125,-0.3207,-0.3207,-0.3263,-0.3264,-0.3264]},{"header":{"parameterUnit":"m.s-1","parameterCategory":1,"la1":30.2991,"la2":30.254,"lo1":-89.0895,"lo2":-89.0444,"dy":0.0017,"dx":0.0017,"nx":28,"ny":28,"refTime":"2024-12-03T03:00:00:Z","depth":0,"parameterNumber":3,"parameterNumberName":"V-component_of_WINDS"},"data":[0,0,0,0,0,0,0,0,0,0,0,0,0,0,0,0,0,0,0,0,0,0,0,0,0,0,0,0,0,0,0,0,0,0,0,0,0,0,0,0,0,0,0,0,0,0,0,0,0,0,0,0,0,0,0,0,0,0,-2.5583,-2.5583,0,-2.5648,-2.5649,-2.565,-2.5626,-2.5625,-2.5623,-2.5622,-2.5687,-2.569,-2.5693,0,0,0,0,0,0,0,0,0,0,0,0,0,-2.5434,-2.5437,-2.5582,-2.5583,-2.5584,-2.5648,-2.5649,-2.565,-2.5626,-2.5625,-2.5623,-2.5621,-2.5685,-2.5689,-2.5693,0,0,0,0,0,0,0,0,0,0,0,0,0,-2.5499,-2.5438,-2.5582,-2.558,-2.5581,-2.5648,-2.5649,-2.565,-2.5627,-2.5624,-2.5622,-2.562,-2.5684,-2.5689,-2.5693,-2.5766,0,0,-2.5707,-2.5709,0,0,0,0,0,0,0,0,-2.5496,-2.5505,-2.558,-2.558,-2.5581,-2.5627,-2.562,-2.5689,-2.5627,-2.5609,-2.5622,-2.5619,-2.5668,-2.5674,-2.5691,-2.5769,-2.5772,-2.5708,-2.5711,-2.5713,-2.5714,0,0,0,0,0,0,0,-2.5491,-2.5502,-2.5608,-2.5581,-2.5582,-2.5575,-2.5582,-2.5633,-2.565,-2.5611,-2.5609,-2.5617,-2.5668,-2.5687,-2.5692,-2.5773,-2.5708,-2.5712,-2.5715,-2.5717,-2.5912,-2.5915,0,0,0,0,0,0,-2.5487,-2.5498,-2.5606,-2.561,-2.5532,-2.558,-2.5587,-2.5614,-2.5649,-2.5653,-2.5619,-2.5616,-2.568,-2.5687,-2.5695,-2.5781,-2.5713,-2.5717,-2.572,-2.591,-2.5913,-2.5915,0,0,0,0,0,0,-2.5484,-2.5496,-2.5604,-2.5554,-2.5567,-2.5584,-2.5615,-2.5617,-2.5635,-2.5656,-2.5659,-2.5635,-2.5678,-2.5688,-2.5748,-2.5783,-2.5719,-2.5723,-2.5907,-2.5911,-2.5914,-2.5956,0,0,0,0,0,0,-2.5479,-2.5496,-2.5524,-2.5555,-2.557,-2.5657,-2.5617,-2.562,-2.5643,-2.564,-2.5672,-2.5675,-2.5677,-2.5742,-2.5753,-2.5788,-2.5727,-2.5904,-2.5909,-2.5913,-2.5951,-2.596,-2.5968,0,0,0,0,0,-2.5474,-2.5533,-2.5525,-2.5539,-2.5606,-2.5659,-2.5668,-2.567,-2.5646,-2.5675,-2.5688,-2.5674,-2.5778,-2.5748,-2.576,-2.5798,-2.5902,-2.5907,-2.5913,-2.5947,-2.5959,-2.5968,0,0,0,0,0,0,-2.5505,-2.5537,-2.5529,-2.5599,-2.5627,-2.5655,-2.5691,-2.5682,-2.5716,-2.5711,-2.5712,-2.572,-2.5782,-2.5796,-2.5762,-2.587,-2.5836,-2.5844,-2.5858,-2.5869,-2.5877,-2.5872,-2.5731,0,0,0,0,0,-2.552,-2.5561,-2.5587,-2.5646,-2.566,-2.5673,-2.5697,-2.5696,-2.5725,-2.5736,-2.5753,-2.5781,-2.5819,-2.5845,-2.5882,-2.5953,-2.5959,-2.5985,-2.5993,-2.6,-2.6007,-2.6045,-2.6057,-2.5933,-2.5933,-2.5933,0,0,-2.5551,-2.5573,-2.56,-2.5653,-2.5674,-2.5716,-2.5683,-2.5729,-2.576,-2.5743,-2.5801,-2.5815,-2.5845,-2.5911,-2.5941,-2.5925,-2.6043,-2.6007,-2.6012,-2.6016,-2.6052,-2.6064,-2.6074,-2.5937,-2.5936,-2.5936,0,0,-2.5629,-2.5651,-2.5703,-2.5725,-2.5758,-2.5766,-2.5778,-2.5808,-2.5817,-2.5875,-2.5863,-2.5899,-2.5966,-2.5988,-2.6008,-2.6095,-2.6083,-2.6107,-2.615,-2.6188,-2.6197,-2.6206,-2.6236,-2.6247,-2.6114,-2.6114,-2.6114,0,-2.5664,-2.5728,-2.573,-2.5778,-2.5801,-2.5788,-2.584,-2.5861,-2.5903,-2.592,-2.5901,-2.5984,-2.6004,-2.6075,-2.6096,-2.6113,-2.6126,-2.6103,-2.6196,-2.6205,-2.6213,-2.6242,-2.6253,-2.6116,-2.6116,-2.6116,-2.6116,0,-2.5768,-2.5813,-2.5851,-2.5893,-2.5921,-2.597,-2.5979,-2.6007,-2.6004,-2.6014,-2.6073,-2.6096,-2.6137,-2.6154,-2.6151,-2.6224,-2.6213,-2.6195,-2.6161,-2.6227,-2.6254,-2.6265,-2.612,-2.6119,-2.6118,-2.6118,0,0,-2.5868,-2.5911,-2.5925,-2.5944,-2.5979,-2.6013,-2.6061,-2.6102,-2.6126,-2.6156,-2.6196,-2.6253,-2.6236,-2.6259,-2.6259,-2.6291,-2.6358,-2.6269,-2.627,-2.6285,-2.6439,-2.6452,-2.6465,-2.635,-2.6352,-2.6354,-2.6436,0,-2.5949,-2.6035,-2.6038,-2.6116,-2.6157,-2.6145,-2.6187,-2.6212,-2.6223,-2.6258,-2.6269,-2.6309,-2.6285,-2.6298,-2.633,-2.6343,-2.6389,-2.6337,-2.6387,-2.6389,-2.6379,-2.6479,-2.6493,-2.657,-2.6447,-2.6449,-2.645,0,-2.6055,-2.6089,-2.6171,-2.62,-2.6218,-2.6255,-2.6293,-2.6327,-2.6356,-2.6361,-2.6386,-2.6381,-2.643,-2.6394,-2.6461,-2.6426,-2.6446,-2.6455,-2.6458,-2.6463,-2.6423,-2.6486,-2.6594,-2.6606,-2.6467,-2.6466,-2.6464,0,-2.6119,-2.6185,-2.6243,-2.626,-2.6295,-2.6322,-2.6338,-2.6364,-2.6388,-2.6421,-2.6436,-2.6474,-2.6494,-2.6523,-2.6527,-2.6502,-2.6594,-2.6559,-2.6599,-2.6599,-2.6619,-2.6617,-2.6732,-2.6633,-2.6632,-2.6632,-2.6632,0,-2.6209,-2.626,-2.6272,-2.6308,-2.6364,-2.6367,-2.6422,-2.6436,-2.6459,-2.6496,-2.6488,-2.6522,-2.6527,-2.6563,-2.6567,-2.6621,-2.663,-2.6635,-2.6635,-2.6636,-2.6635,-2.6649,-2.6644,-2.6635,-2.6635,-2.6634,-2.6633,0,-2.629,-2.63,-2.6362,-2.6391,-2.6399,-2.6439,-2.6463,-2.6497,-2.6506,-2.6553,-2.6565,-2.6579,-2.6621,-2.6629,-2.6678,-2.668,-2.6745,-2.674,-2.6735,-2.6735,-2.6774,-2.677,-2.6901,-2.6918,-2.6808,-2.6809,-2.681,0,-2.6347,-2.6385,-2.6418,-2.6443,-2.646,-2.65,-2.6525,-2.6529,-2.6555,-2.659,-2.6619,-2.666,-2.6693,-2.676,-2.6775,-2.6812,-2.6808,-2.6851,-2.6813,-2.6812,-2.6808,-2.6806,-2.6809,-2.6858,-2.6859,-2.686,-2.6861,0,-2.6446,-2.6449,-2.6486,-2.6524,-2.6554,-2.6584,-2.6613,-2.6633,-2.6641,-2.6671,-2.6714,-2.6739,-2.679,-2.683,-2.6867,-2.6883,-2.6873,-2.6873,-2.6884,-2.6885,-2.6881,-2.6883,-2.6755,-2.687,-2.6869,-2.6868,-2.6868,-2.6868,-2.6516,-2.655,-2.6578,-2.6619,-2.6641,-2.6668,-2.6701,-2.6715,-2.6751,-2.6793,-2.6793,-2.684,-2.6866,-2.6915,-2.6933,-2.6969,-2.6955,-2.6972,-2.6976,-2.6979,-2.6983,-2.6875,-2.6976,-2.6976,-2.6976,-2.6975,-2.6975,0,-2.6615,-2.6633,-2.667,-2.6711,-2.6743,-2.6732,-2.6763,-2.679,-2.6832,-2.6858,-2.6891,-2.694,-2.6979,-2.6996,-2.7035,-2.706,-2.7057,-2.707,-2.7068,-2.7072,-2.6993,-2.698,-2.7072,-2.7072,-2.7072,-2.7072,-2.7072,-2.7072,-2.667,-2.6726,-2.6733,-2.68,-2.6817,-2.6864,-2.6882,-2.6907,-2.6927,-2.6983,-2.7016,-2.7027,-2.705,-2.709,-2.7125,-2.7129,-2.7143,-2.7158,-2.716,-2.7087,-2.7077,-2.7068,-2.7055,-2.7162,-2.7162,-2.7236,-2.7236,-2.7237]}]]